Showing default

ORBCOMM FM 118, 41183

Orbit data source: Space-Track

ORBCOMM FM 118, 41183 is a payload satellite owned by Orbcomm (US) in LEO that was launched on Tue, 22 Dec 2015 UTC via an FALCON 9 launch vehicle from the Air Force Eastern Test Range (AFETR). Payload-class satellites include a variety of spacecraft equipped with specific instruments for various scientific and technological missions. These include communications satellites like Starlink; space stations such as the ISS; scientific satellites like the Hubble; Earth observation satellites from companies like Planet Labs, Umbra, and HawkEye 360; GPS; miniature CubeSats for education and research; and military/defense satellites.

Loading next visibility...
Identifier
41183, 2015-081E
Orbit
LEO
Country
Flag of USUS / ORB
Related business
Manufacturer
SNC Louisville
Mission
Operational Commercial Communications
Bus & Motor
SN-100A, Unknown motor
Mass
172 kg wet, 158 kg dry
Launch date (UTC)
2015-12-22 (11 years ago)
Launch vehicle
FALCON 9
Launch site
Air Force Eastern Test Range (AFETR)
Object type
Payload
Rocket body
Debris
Shape & HBR
Box + 1 Pan + 1 Ant, 5.3 m
Radar Cross Section
2.222 m², Large (>1 m²)

Expand to show TLE details & history
Last TLE update: 1 day ago

TLE from 1 day ago
0 ORBCOMM FM 118
1 41183U 15081E   26237.51279770  .00000387  00000-0  11802-3 0  9993
2 41183  47.0049  33.9771 0002707 341.3013  18.7773 14.58949364567851
Epoch: 2026-08-25T12:18Z
TLE epoch observation values (Epoch: 2026-08-25T12:18:25.721Z)
Latitude
-0.00001°
Longitude
-124.40916°
Altitude
694.971 km
Speed
7.511 km/s
True Right ascension
02h 15m 54s
True Declination
0° 00' 00"
Sunlit
Object was in full shadow at epoch
Visualization orbit readout
Latitude
Unknown
Longitude
Unknown
Altitude
Unknown
Speed
Unknown
Apparent Right ascension
Unknown
Apparent Declination
Unknown
Sunlit
N/A
Visualization observer readout
Local Sidereal Time
09:53:04
Azimuth
Unknown
Elevation
Unknown
Doppler factor
Unknown
Orbital elements
Apogee altitude
699.718 km
Perigee altitude
695.887 km
Semi-major axis
7,075.94 km
Eccentricity
0.00027
Inclination
47.0049°
RAAN
33.9771°
Arg. of periapsis
341.3013°
True anomaly
18.78729°
Mean anomaly
18.7773°
Eccentric anomaly
18.78229°
Mean motion
3.64642 °/min
Orbital period
98.73 mins
BSTAR
0.00011802
Loading maneuver chart data...
Computing Atmospheric mass density...
Loading historical data...
Loading historical data...
Loading historical data...
Loading historical data...
Loading historical data...
Loading historical data...
Loading historical data...

Documentation

Showing up to 5 results
|